Overview Statistics Trail Chart Weather Telemetry Raw packets
 

This is the latest recevied weather packets stored in our database for station/object GW4003. If no packets are shown the sender has not sent any weather packets the latest 10 day(s).

<< 91 92 93 94 95 96 97 >>
Time Temp. Humidity Pressure Rain* Wind** Luminosity Snow
1787956202 33.33° C 22% 1020 hPa 0 mm - - -
1787955897 33.89° C 19% 1019.8 hPa 0 mm - - -
1787955594 33.89° C 18% 1019.2 hPa 0 mm - - -
1787955290 33.89° C 18% 1018.9 hPa 0 mm - - -
1787954986 33.89° C 18% 1018.9 hPa 0 mm - - -
1787954683 34.44° C 19% 1018.9 hPa 0 mm - - -
1787954379 34.44° C 18% 1018.9 hPa 0 mm - - -
1787954075 33.89° C 18% 1018.9 hPa 0 mm - - -
1787953772 33.89° C 18% 1018.8 hPa 0 mm - - -
1787953468 33.89° C 19% 1018.9 hPa 0 mm - - -
1787953164 33.89° C 19% 1018.9 hPa 0 mm - - -
1787952860 33.89° C 18% 1019.1 hPa 0 mm - - -
1787952555 34.44° C 19% 1019.1 hPa 0 mm - - -
1787952251 34.44° C 19% 1019.3 hPa 0 mm - - -
1787951948 33.33° C 19% 1019.4 hPa 0 mm - - -
1787951644 32.78° C 20% 1019.8 hPa 0 mm - - -
1787951340 33.33° C 20% 1019.9 hPa 0 mm - - -
1787951036 33.89° C 21% 1020 hPa 0 mm - - -
1787950732 33.89° C 19% 1019.9 hPa 0 mm - - -
1787950428 33.89° C 19% 1019.8 hPa 0 mm - - -
1787950125 33.89° C 19% 1019.9 hPa 0 mm - - -
1787949820 34.44° C 18% 1019.9 hPa 0 mm - - -
1787949517 34.44° C 20% 1020 hPa 0 mm - - -
1787949213 34.44° C 18% 1020 hPa 0 mm - - -
1787948909 34.44° C 19% 1020 hPa 0 mm - - -

* Rain latest hour (hover to see other rain measurements)
** Current wind speed in m/s (hover to see current wind gust speed)